TimeEDT,TemperatureF,Dew PointF,Humidity,Sea Level PressureIn,VisibilityMPH,Wind Direction,Wind SpeedMPH,Gust SpeedMPH,PrecipitationIn,Events,Conditions,WindDirDegrees,DateUTC
12:56 AM,57.9,46.9,67,30.36,10.0,Calm,Calm,-,N/A,,Clear,0,2011-10-10 04:56:00
1:56 AM,57.0,46.0,67,30.35,10.0,East,3.5,-,N/A,,Clear,100,2011-10-10 05:56:00
2:56 AM,53.6,46.4,77,30.36,10.0,East,4.6,-,N/A,,Clear,80,2011-10-10 06:56:00
3:56 AM,51.1,46.0,83,30.34,10.0,Calm,Calm,-,N/A,,Clear,0,2011-10-10 07:56:00
4:56 AM,51.1,45.0,80,30.33,10.0,ENE,3.5,-,N/A,,Clear,60,2011-10-10 08:56:00
5:56 AM,50.0,45.0,83,30.34,10.0,East,3.5,-,N/A,,Clear,90,2011-10-10 09:56:00
6:56 AM,50.0,44.6,82,30.35,10.0,Calm,Calm,-,N/A,,Clear,0,2011-10-10 10:56:00
7:56 AM,50.0,44.1,80,30.35,10.0,Calm,Calm,-,N/A,,Clear,0,2011-10-10 11:56:00
10:56 AM,66.9,52.0,59,30.35,10.0,ENE,3.5,-,N/A,,Clear,70,2011-10-10 14:56:00
11:56 AM,72.0,51.1,48,30.33,10.0,Calm,Calm,-,N/A,,Clear,0,2011-10-10 15:56:00
12:56 PM,73.9,39.9,29,30.31,10.0,Calm,Calm,-,N/A,,Partly Cloudy,0,2011-10-10 16:56:00
1:56 PM,73.9,48.0,40,30.29,10.0,Calm,Calm,-,N/A,,Clear,0,2011-10-10 17:56:00
2:56 PM,73.0,48.9,42,30.27,10.0,Calm,Calm,-,N/A,,Clear,0,2011-10-10 18:56:00
3:56 PM,72.0,55.0,55,30.26,10.0,Calm,Calm,-,N/A,,Clear,0,2011-10-10 19:56:00
4:56 PM,71.6,55.4,57,30.26,10.0,Calm,Calm,-,N/A,,Clear,0,2011-10-10 20:56:00
5:56 PM,69.8,53.6,56,30.25,10.0,Calm,Calm,-,N/A,,Clear,0,2011-10-10 21:56:00
6:56 PM,63.0,54.0,72,30.24,10.0,Calm,Calm,-,N/A,,Clear,0,2011-10-10 22:56:00
7:56 PM,62.1,50.0,65,30.24,10.0,Calm,Calm,-,N/A,,Clear,0,2011-10-10 23:56:00
8:56 PM,60.1,53.1,78,30.24,10.0,Calm,Calm,-,N/A,,Clear,0,2011-10-11 00:56:00
9:56 PM,59.0,54.0,83,30.23,10.0,East,4.6,-,N/A,,Clear,90,2011-10-11 01:56:00
10:56 PM,57.0,54.0,89,30.23,10.0,Calm,Calm,-,N/A,,Clear,0,2011-10-11 02:56:00
11:56 PM,54.0,52.0,93,30.22,8.0,ENE,3.5,-,N/A,,Clear,60,2011-10-11 03:56:00